Location: Mococo
(38.0255°N, 122.1161°W)
Time: 00:15:28
(UTC+00:00)

Cosmos 2100 Rocket - Pass Details

Date: 23 May 2026
Orbit: 956 x 999 km, 82.9° (Epoch: 10 June)

Event Time Altitude Azimuth Distance (km) Brightness Sun altitude
Rises 04:09:54 0° 224° (SW) 3,669 7.1 -9.5°
Reaches altitude 10° 04:13:00 10° 239° (WSW) 2,733 6.7 -10.0°
Maximum altitude 04:17:45 22° 288° (WNW) 2,003 6.7 -10.8°
Drops below altitude 10° 04:22:33 10° 338° (NNW) 2,765 7.4 -11.5°
Sets 04:25:45 0° 353° (N) 3,723 7.8 -12.0°
